Weather in Krasnovidovo

Russia / Republic of Tatarstan     55°21′41″N   49°04′37″E
В апреле 2022 года жителям России запретили посещать сайт meteo.paraplan.net по решению Генеральной прокуратуры. Аудитория сайта уменьшилась в 10 раз. Владельцы сайта не видят смысла в поддержке погодного сервера в таких условиях. Сайт будет закрыт в октябре.
temp.,
°C
wind,
m/s
gust,
m/s
humid.,
%
clouds,
%
prec.,
mm/h
press.,
hPa
HPBL,
m
3 october, mon
mon300:00+14s61589100 0.2 1012484
03:00+14s71590100 0.9 1013463
06:00+13s71680100 0.1 1013429
09:00+14sse8166346 0.1 1014578
12:00+17s916489 0.0 1015844
15:00+18sse9164534 0.0 1015985
18:00+15sse81647100 0.0 1017684
21:00+14sse71644100 0.0 1019717
4 october, tue
tue400:00+13sse61444100 0.0 1020608
03:00+12sse61347100 0.0 1020487
06:00+11sse51249100 0.0 1022661
09:00+10s71375100 0.2 1023649
12:00+11sse51157100 0.2 1024616
15:00+12sse5104448 0.3 1024453
18:00+13sse51246100 0.0 1024423
21:00+10s41373100 0.6 1025634
5 october, wed
wed500:00+10sse71368100 0.1 1024558
03:00+10se51053100 0.5 1024333
06:00+9sse71367100 0.0 1024671
09:00+10sse6116463 0.0 1023606
12:00+14s8104270 0.0 1021906
15:00+13sse71246100 0.0 1020830
18:00+12s81453100 0.3 1020720
21:00+11s81466100 0.3 1019532
6 october, thu
thu600:00+10s61189100 0.2 1018486
03:00+9ssw399597 0.3 1017232
06:00+9sw41083100 0.3 1017581
09:00+10wsw696799 0.3 1016854
12:00+11wsw6755100 0.0 10161465
15:00+10w5658100 0.0 10161092
18:00+7w367285 0.0 1017251
21:00+7w377969 0.1 1016445
7 october, fri
fri700:00+7wsw367799 0.1 1016344
03:00+5wsw36825 0.1 1015129
06:00+4ssw3882100 0.0 1014183
09:00+7ssw41093100 0.9 1012522
12:00+9w61294100 1.3 1012660
15:00+12wnw5107399 1.3 10121411
18:00+10w81376100 0.2 1014804
21:00+9w8147898 0.3 1014974